Tracking 29892 objects as of 21-Nov-2024
HD Live streaming from Space Station
objects crossing your sky now

LATINSAT A

Track LATINSAT A now!
10-day predictions
LATINSAT A is classified as:


NORAD ID: 27612
Int'l Code: 2002-058H
Perigee: 605.1 km
Apogee: 647.1 km
Inclination: 64.6 °
Period: 97.1 minutes
Semi major axis: 6997 km
RCS: 0.0297 m2 (small)
Launch date: December 20, 2002
Source: Argentina (ARGN)
Launch site: TYURATAM MISSILE AND SPACE COMPLEX (TTMTR)

Nanosatellite; planned constellation of 48 satellites, little LEO; asset tracking and monitoring services.
Your satellite tracking list
Your tracking list is empty




NASA's NSSDC Master Catalog

Two Line Element Set (TLE):
1 27612U 02058H   24325.76033691  .00002915  00000-0  37000-3 0  9994
2 27612  64.5557 299.7575 0030042 337.7032  22.2765 14.83293461182501
Source of the keplerian elements: AFSPC